Miscellaneous Local Product
Issued by NWS North Platte, NE

Home | Current Version | Previous Version | Text Only | Print | Product List | Glossary On
Versions: 1 2 3 4 5 6 7 8 9 10 11 12 13 14 15 16 17 18 19 20 21 22 23 24 25 26 27 28 29 30 31 32 33 34 35 36 37 38 39 40 41 42 43 44 45 46 47 48 49 50
000
AXUS43 KLBF 131610
MISLBF


WESTERN AND NORTH CENTRAL NEBRASKA HOURLY WEATHER ROUNDUP
NATIONAL WEATHER SERVICE NORTH PLATTE NE
1100 AM CDT SUN JUL 13 2014

***STATIONS NOT REPORTING VARIABLES SUCH AS SKY/WEATHER OR
PRESSURE ARE PROVIDED BY THE NEBRASKA DEPARTMENT OF
ROADS...RAWS...AND APRS NETWORKS...AND ARE NOT UNDER
NATIONAL WEATHER SERVICE QUALITY CONTROL***

...OBSERVATIONS IN AND NEAR THE EASTERN PANHANDLE OF NEBRASKA...

CITY           SKY/WX    TMP DP  RH WIND       PRES   REMARKS
PINE RIDGE     SUNNY     75  61  61 CALM      30.22F
CHADRON        MOSUNNY   78  60  53 NE6       30.22F
ALLIANCE       SUNNY     78  58  49 CALM      30.24F
SIDNEY         SUNNY     77  58  51 N5        30.29F
WHITECLAY        N/A     74  55  49 NW6         N/A
RUSHVILLE        N/A     80  58  45 NW7         N/A
GORDON           N/A     80  54  41 E9          N/A
CRESCENT LAKE    N/A     80  63  56 S3          N/A
LISCO            N/A     80  65  58 CALM        N/A
BIG SPRINGS      N/A     72  64  76 CALM        N/A
$$

...OBSERVATIONS IN NORTH CENTRAL NEBRASKA...

CITY           SKY/WX    TMP DP  RH WIND       PRES   REMARKS
VALENTINE      SUNNY     79  62  56 NW9       30.16F
THEDFORD       SUNNY     82  62  51 NW8       30.19S
AINSWORTH      SUNNY     77  63  61 NW8       30.15F
O`NEILL        PTSUNNY   78  66  64 W8        30.10F
ORD            PTSUNNY   79  64  60 SW5       30.11F
BROKEN BOW     SUNNY     79  66  64 W6        30.15F
BROWNLEE         N/A     82  60  46 NW13        N/A
SPRINGVIEW       N/A     78  67  68 W6          N/A
ROSE             N/A     83  70  64 SW10        N/A
NEWPORT          N/A     79  68  69 SW6         N/A
SARGENT          N/A     78  64  61 MISG        N/A
COMSTOCK         N/A     86  69  56 W3          N/A
CHAMBERS         N/A     84  69  61 CALM        N/A
$$

...OBSERVATIONS IN SOUTHWEST NEBRASKA AND FAR NORTHEAST COLORADO...

CITY           SKY/WX    TMP DP  RH WIND       PRES   REMARKS
WRAY           PTSUNNY   82  62  51 CALM      30.24S
HOLYOKE        FAIR      81  61  50 W3        30.25S
IMPERIAL       SUNNY     79  64  60 N5        30.22F
OGALLALA       MOSUNNY   77  62  59 W5        30.22S
NORTH PLATTE   SUNNY     81  61  50 NW8       30.18F
MCCOOK         SUNNY     82  65  56 N8        30.17S
LEXINGTON      SUNNY     80  68  65 NW6       30.16S
PAXTON           N/A     74  68  81 CALM        N/A
SUTHERLAND       N/A     85  66  53 W5          N/A
BRADY            N/A     79  61  54 CALM        N/A
GOTHENBURG       N/A     78  63  60 NW5         N/A
CALLAWAY         N/A     75  70  86 W7          N/A
$$

...NORTH PLATTE AREA...

CITY           SKY/WX    TMP DP  RH WIND       PRES   REMARKS
AIRPORT        SUNNY     81  61  50 NW8       30.18F
INDIAN HILLS     N/A     87  64  46 CALM        N/A
$$

...SOME WEATHER OBSERVATIONS FROM AROUND THE REGION...

CITY           SKY/WX    TMP DP  RH WIND       PRES   REMARKS
DENVER         MOSUNNY   74  58  57 CALM      30.34S
LARAMIE        SUNNY     68  51  54 VRB3      30.43F
CHEYENNE       PTSUNNY   74  54  49 NE6       30.38F
SCOTTSBLUFF    MOSUNNY   76  63  64 CALM      30.26F
RAPID CITY     SUNNY     76  55  48 NW6       30.21F
PIERRE         SUNNY     76  61  59 N10       30.09F
WINNER         FAIR      82  57  42 NW7       30.11F
SIOUX FALLS    MOSUNNY   77  63  61 NW9       30.05S
OMAHA          MOSUNNY   83  66  56 NW5       30.05F
GRAND ISLAND   SUNNY     81  68  64 W5        30.12F
KANSAS CITY    PTSUNNY   79  73  82 W6        30.04R
WICHITA        PTSUNNY   83  71  67 N10       30.04R
HAYS           PTSUNNY   77  61  57 N9        30.15R
LIBERAL        MOSUNNY   79  63  57 N6        30.21S
GOODLAND       MOSUNNY   79  62  56 E9        30.24S
$$



USA.gov is the U.S. government's official web portal to all federal, state and local government web resources and services.